Weather History for Deer Park, WA

Change the Weather History Date:

Saturday, November 2, 2013

  Actual Average Record
Temperature  
Mean Temperature 44 °F 38 °F  
Max Temperature 51 °F 48 °F 57 °F (2010)
Min Temperature 37 °F 28 °F 3 °F (2002)
Degree Days  
Heating Degree Days 21 27  
Month to date heating degree days 50 53  
Since 1 July heating degree days 1030 1121  
Cooling Degree Days 0 0  
Month to date cooling degree days 0 0  
Year to date cooling degree days 310 187  
Moisture  
Dew Point 37 °F    
Average Humidity 73    
Maximum Humidity 93    
Minimum Humidity 53    
Precipitation  
Precipitation 0.52 in 0.10 in 0.58 in (2004)
Month to date precipitation 0.52 0.20  
Year to date precipitation 15.27 16.26  
Sea Level Pressure  
Sea Level Pressure 29.69 in    
Wind  
Wind Speed 12 mph (South)    
Max Wind Speed 30 mph    
Max Gust Speed 37 mph    
Visibility 8 miles    
Events Rain    
T = Trace of Precipitation, MM = Missing Value Source: NWS Daily Summary

Daily Weather History Graph

Daily Weather History Graph

Search for Another Location

Airport:

Trip Planner

Search our weather history database for the weather conditions in past years. The results will help you decide how hot, cold, wet, or windy it might be!

Date:

Astronomy

Nov. 02, 2013 Rise Set
Actual Time 7:36 AM PDT 5:29 PM PDT
Civil Twilight 7:03 AM PDT 6:01 PM PDT
Nautical Twilight 6:27 AM PDT 6:38 PM PDT
Astronomical Twilight 5:51 AM PDT 7:14 PM PDT
Moon 6:36 AM PDT (11/2) 5:04 PM PDT (11/2)
Length of Visible Light 10h 57m
Length of Day
9h 52m
Waning Crescent, 1% of the Moon is Illuminated
Nov 2
Waning Crescent
Nov 3
New
Nov 9
First Quarter
Nov 17
Full
Nov 25
Last Quarter

Hourly Weather History & Observations

Time (PDT) Temp. Windchill Dew Point Humidity Pressure Visibility Wind Dir Wind Speed Gust Speed Precip Events Conditions
12:53 AM 39.0 °F 36.8 °F 36.0 °F 89% 30.01 in 10.0 mi North 3.5 mph - N/A   Clear
1:53 AM 39.9 °F 35.8 °F 36.0 °F 86% 29.95 in 10.0 mi NNE 5.8 mph - N/A   Scattered Clouds
2:53 AM 39.9 °F 36.7 °F 35.1 °F 83% 29.88 in 10.0 mi NE 4.6 mph - N/A   Scattered Clouds
3:53 AM 39.9 °F 36.7 °F 36.0 °F 86% 29.85 in 10.0 mi North 4.6 mph - N/A   Overcast
4:53 AM 39.0 °F 36.8 °F 37.0 °F 93% 29.83 in 6.0 mi North 3.5 mph - 0.03 in Rain Light Rain
5:53 AM 39.0 °F 34.8 °F 37.9 °F 96% 29.78 in 10.0 mi North 5.8 mph - 0.04 in Rain Light Rain
6:53 AM 39.0 °F 34.8 °F 37.0 °F 93% 29.74 in 8.0 mi NNE 5.8 mph - 0.04 in Rain Light Rain
7:53 AM 39.9 °F 37.8 °F 37.9 °F 93% 29.72 in 6.0 mi NE 3.5 mph - 0.08 in Rain Rain
8:53 AM 39.9 °F 36.7 °F 37.9 °F 93% 29.70 in 4.0 mi NE 4.6 mph - 0.09 in Rain Rain
9:10 AM 39.2 °F - 39.2 °F 100% 29.66 in 2.5 mi Calm Calm - 0.05 in Rain Rain
9:20 AM 39.2 °F 37.0 °F 39.2 °F 100% 29.65 in 3.0 mi ENE 3.5 mph - 0.06 in Rain Light Rain
9:53 AM 41.0 °F 37.1 °F 39.0 °F 93% 29.66 in 2.5 mi SE 5.8 mph - 0.13 in Rain Rain
9:59 AM 41.0 °F 37.1 °F 39.2 °F 93% 29.63 in 2.0 mi SE 5.8 mph - 0.02 in Rain Rain
10:08 AM 41.0 °F - 39.2 °F 93% 29.63 in 1.8 mi Calm Calm - 0.04 in Rain Rain
10:21 AM 39.2 °F 37.0 °F 39.2 °F 100% 29.62 in 2.0 mi Variable 3.5 mph - 0.07 in Rain Rain
10:28 AM 41.0 °F 38.0 °F 39.2 °F 93% 29.63 in 1.8 mi South 4.6 mph - 0.09 in Rain Light Rain
10:33 AM 41.0 °F 39.0 °F 39.2 °F 93% 29.61 in 3.0 mi South 3.5 mph - 0.10 in Rain Rain
10:53 AM 42.1 °F 37.1 °F 39.9 °F 92% 29.64 in 6.0 mi SE 8.1 mph - 0.10 in Rain Light Rain
11:32 AM 44.6 °F 40.2 °F 42.8 °F 93% 29.59 in 6.0 mi SSE 8.1 mph - 0.01 in   Overcast
11:39 AM 44.6 °F 40.7 °F 42.8 °F 93% 29.62 in 8.0 mi SSW 6.9 mph - 0.01 in   Overcast
11:53 AM 44.1 °F 40.8 °F 43.0 °F 96% 29.64 in 9.0 mi SSE 5.8 mph - 0.01 in   Overcast
12:04 PM 46.4 °F - 44.6 °F 93% 29.60 in 10.0 mi Calm Calm - N/A   Overcast
12:53 PM 46.9 °F - 43.0 °F 86% 29.61 in 10.0 mi SSW 17.3 mph 25.3 mph N/A   Overcast
1:53 PM 48.0 °F - 42.1 °F 80% 29.59 in 10.0 mi SSW 18.4 mph 26.5 mph N/A   Overcast
2:19 PM 48.2 °F - 41.0 °F 76% 29.56 in 10.0 mi SSW 17.3 mph 32.2 mph N/A   Overcast
2:53 PM 50.0 °F - 42.1 °F 74% 29.57 in 10.0 mi South 18.4 mph 28.8 mph N/A   Mostly Cloudy
3:53 PM 51.1 °F - 37.9 °F 61% 29.56 in 10.0 mi SSW 21.9 mph 36.8 mph N/A   Overcast
4:53 PM 48.9 °F - 35.1 °F 59% 29.60 in 10.0 mi SSW 20.7 mph 32.2 mph N/A   Overcast
5:53 PM 46.9 °F - 32.0 °F 56% 29.62 in 10.0 mi SSW 21.9 mph 35.7 mph N/A   Overcast
6:53 PM 46.0 °F 38.8 °F 30.0 °F 54% 29.66 in 10.0 mi SSW 18.4 mph 31.1 mph N/A   Overcast
7:53 PM 44.1 °F 35.9 °F 28.9 °F 55% 29.69 in 10.0 mi SSW 19.6 mph 27.6 mph N/A   Overcast
8:53 PM 42.1 °F 33.9 °F 28.9 °F 60% 29.71 in 10.0 mi SSW 17.3 mph - N/A   Overcast
9:53 PM 39.9 °F 29.7 °F 30.0 °F 68% 29.74 in 10.0 mi SSW 23.0 mph 29.9 mph N/A   Overcast
10:53 PM 37.0 °F 27.7 °F 32.0 °F 82% 29.75 in 10.0 mi South 16.1 mph 24.2 mph 0.00 in   Overcast
11:53 PM 37.9 °F 30.0 °F 30.0 °F 73% 29.77 in 10.0 mi SSW 12.7 mph - N/A   Overcast